Time,TemperatureF,DewpointF,PressureIn,WindDirection,WindDirectionDegrees,WindSpeedMPH,WindSpeedGustMPH,Humidity,HourlyPrecipIn,Conditions,Clouds,dailyrainin,SoftwareType,DateUTC
2013-03-06 00:00:00,19.7,15.1,29.73,North,0,0.0,0.4,82,0.00,,,-99.99,VWS V12.07,2013-03-06 06:00:00,
2013-03-06 00:05:00,19.7,15.1,29.74,NNE,22,0.0,0.0,82,0.00,,,-99.99,VWS V12.07,2013-03-06 06:05:00,
2013-03-06 00:10:00,19.7,15.1,29.73,WNW,292,0.0,0.0,82,0.00,,,-99.99,VWS V12.07,2013-03-06 06:10:00,
2013-03-06 00:15:00,19.9,15.3,29.73,NNE,22,0.0,4.2,82,0.00,,,-99.99,VWS V12.07,2013-03-06 06:15:00,
2013-03-06 00:25:00,19.9,15.3,29.73,NNE,22,0.0,0.0,82,0.00,,,-99.99,VWS V12.07,2013-03-06 06:25:00,
2013-03-06 00:30:00,19.9,15.3,29.74,ENE,68,0.0,0.0,82,0.00,,,-99.99,VWS V12.07,2013-03-06 06:30:00,
2013-03-06 00:35:00,19.9,15.3,29.74,NNE,22,0.0,0.0,82,0.00,,,-99.99,VWS V12.07,2013-03-06 06:35:00,
2013-03-06 00:45:00,19.9,15.6,29.74,NE,45,2.6,2.6,83,0.00,,,-99.99,VWS V12.07,2013-03-06 06:45:00,
2013-03-06 00:50:00,19.9,15.6,29.74,NE,45,0.0,2.6,83,0.00,,,-99.99,VWS V12.07,2013-03-06 06:50:00,
2013-03-06 00:55:00,19.9,15.6,29.74,NNE,22,0.0,2.6,83,0.00,,,-99.99,VWS V12.07,2013-03-06 06:55:00,
2013-03-06 01:00:00,19.9,15.6,29.75,NNE,22,0.0,2.6,83,0.00,,,-99.99,VWS V12.07,2013-03-06 07:00:00,
2013-03-06 01:05:00,19.9,15.6,29.75,NE,45,0.0,0.0,83,0.00,,,-99.99,VWS V12.07,2013-03-06 07:05:00,
2013-03-06 01:10:00,19.9,15.6,29.75,West,270,0.0,0.0,83,0.00,,,-99.99,VWS V12.07,2013-03-06 07:10:00,
2013-03-06 01:20:00,19.9,15.6,29.75,NNE,22,0.0,0.0,83,0.00,,,-99.99,VWS V12.07,2013-03-06 07:20:00,
2013-03-06 01:30:00,19.9,15.6,29.75,NW,315,0.0,3.8,83,0.00,,,-99.99,VWS V12.07,2013-03-06 07:30:00,
2013-03-06 01:35:00,19.9,15.6,29.75,NNW,338,0.0,0.0,83,0.00,,,-99.99,VWS V12.07,2013-03-06 07:35:00,
2013-03-06 01:45:00,20.1,15.8,29.75,NNW,338,5.8,5.8,83,0.00,,,-99.99,VWS V12.07,2013-03-06 07:45:00,
2013-03-06 01:50:00,20.1,15.8,29.75,NNE,22,0.0,5.8,83,0.00,,,-99.99,VWS V12.07,2013-03-06 07:50:00,
2013-03-06 02:00:00,20.1,15.8,29.75,NE,45,0.0,5.8,83,0.00,,,-99.99,VWS V12.07,2013-03-06 08:00:00,
2013-03-06 02:05:00,20.1,15.8,29.75,WNW,292,0.0,0.0,83,0.00,,,-99.99,VWS V12.07,2013-03-06 08:05:00,
2013-03-06 02:10:00,20.1,15.8,29.75,NNE,22,3.3,3.3,83,0.00,,,-99.99,VWS V12.07,2013-03-06 08:10:00,
2013-03-06 02:15:00,20.3,16.0,29.75,NNE,22,0.0,3.3,83,0.00,,,-99.99,VWS V12.07,2013-03-06 08:15:00,
2013-03-06 02:20:00,20.1,15.8,29.75,NNE,22,0.0,0.0,83,0.00,,,-99.99,VWS V12.07,2013-03-06 08:20:00,
2013-03-06 02:25:00,20.3,16.0,29.75,NNE,22,0.0,0.0,83,0.00,,,-99.99,VWS V12.07,2013-03-06 08:25:00,
2013-03-06 02:30:00,20.3,16.0,29.75,NE,45,0.0,1.5,83,0.00,,,-99.99,VWS V12.07,2013-03-06 08:30:00,
2013-03-06 02:35:00,20.3,16.0,29.75,NNW,338,0.0,0.0,83,0.00,,,-99.99,VWS V12.07,2013-03-06 08:35:00,
2013-03-06 02:40:00,20.3,16.0,29.75,NNW,338,0.0,0.0,83,0.00,,,-99.99,VWS V12.07,2013-03-06 08:40:00,
2013-03-06 02:45:00,20.3,16.0,29.75,NNE,22,0.0,0.0,83,0.00,,,-99.99,VWS V12.07,2013-03-06 08:45:00,
2013-03-06 02:50:00,20.4,16.1,29.75,NE,45,0.0,0.0,83,0.00,,,-99.99,VWS V12.07,2013-03-06 08:50:00,
2013-03-06 02:55:00,20.4,16.1,29.75,North,0,0.0,0.0,83,0.00,,,-99.99,VWS V12.07,2013-03-06 08:55:00,
2013-03-06 03:00:00,20.4,16.1,29.75,North,0,0.0,0.0,83,0.00,,,-99.99,VWS V12.07,2013-03-06 09:00:00,
2013-03-06 03:05:00,20.4,16.1,29.75,North,0,0.0,0.0,83,0.00,,,-99.99,VWS V12.07,2013-03-06 09:05:00,
2013-03-06 03:10:00,20.4,16.1,29.75,NNE,22,0.0,1.3,83,0.00,,,-99.99,VWS V12.07,2013-03-06 09:10:00,
2013-03-06 03:15:00,20.4,16.1,29.76,NNE,22,0.0,1.3,83,0.00,,,-99.99,VWS V12.07,2013-03-06 09:15:00,
2013-03-06 03:20:00,20.4,16.4,29.76,NNE,22,0.0,0.0,84,0.00,,,-99.99,VWS V12.07,2013-03-06 09:20:00,
2013-03-06 03:25:00,20.4,16.1,29.76,NNE,22,0.0,0.0,83,0.00,,,-99.99,VWS V12.07,2013-03-06 09:25:00,
2013-03-06 03:30:00,20.4,16.4,29.76,NNE,22,0.0,0.0,84,0.00,,,-99.99,VWS V12.07,2013-03-06 09:30:00,
2013-03-06 03:35:00,20.4,16.4,29.76,NNE,22,0.0,0.0,84,0.00,,,-99.99,VWS V12.07,2013-03-06 09:35:00,
2013-03-06 03:40:00,20.4,16.4,29.76,NNE,22,0.0,0.0,84,0.00,,,-99.99,VWS V12.07,2013-03-06 09:40:00,
2013-03-06 03:45:00,20.6,16.5,29.76,North,0,0.0,0.0,84,0.00,,,-99.99,VWS V12.07,2013-03-06 09:45:00,
2013-03-06 03:50:00,20.8,16.7,29.76,North,0,0.0,0.0,84,0.00,,,-99.99,VWS V12.07,2013-03-06 09:50:00,
2013-03-06 03:55:00,20.8,16.7,29.76,North,0,0.0,0.0,84,0.00,,,-99.99,VWS V12.07,2013-03-06 09:55:00,
2013-03-06 04:00:00,20.8,16.7,29.76,North,0,0.0,0.0,84,0.00,,,-99.99,VWS V12.07,2013-03-06 10:00:00,
2013-03-06 04:05:00,20.8,16.7,29.76,North,0,0.0,0.0,84,0.00,,,-99.99,VWS V12.07,2013-03-06 10:05:00,
2013-03-06 04:10:00,20.8,16.7,29.75,North,0,0.0,0.0,84,0.00,,,-99.99,VWS V12.07,2013-03-06 10:10:00,
2013-03-06 04:20:00,20.8,16.7,29.76,NNE,22,0.0,0.0,84,0.00,,,-99.99,VWS V12.07,2013-03-06 10:20:00,
2013-03-06 04:25:00,20.8,16.7,29.76,NNE,22,0.0,0.0,84,0.00,,,-99.99,VWS V12.07,2013-03-06 10:25:00,
2013-03-06 04:30:00,20.8,16.7,29.77,NNE,22,0.0,0.0,84,0.00,,,-99.99,VWS V12.07,2013-03-06 10:30:00,
2013-03-06 04:35:00,20.8,16.7,29.77,NW,315,0.0,0.0,84,0.00,,,-99.99,VWS V12.07,2013-03-06 10:35:00,
2013-03-06 04:40:00,20.8,16.7,29.77,West,270,0.0,0.0,84,0.00,,,-99.99,VWS V12.07,2013-03-06 10:40:00,
2013-03-06 04:45:00,20.8,16.7,29.78,West,270,0.0,0.0,84,0.00,,,-99.99,VWS V12.07,2013-03-06 10:45:00,
2013-03-06 04:50:00,20.8,16.7,29.78,NNE,22,0.0,0.0,84,0.00,,,-99.99,VWS V12.07,2013-03-06 10:50:00,
2013-03-06 05:00:00,21.0,16.9,29.78,NE,45,0.0,0.0,84,0.00,,,-99.99,VWS V12.07,2013-03-06 11:00:00,
2013-03-06 05:05:00,21.0,16.9,29.78,NNE,22,0.0,0.0,84,0.00,,,-99.99,VWS V12.07,2013-03-06 11:05:00,
2013-03-06 05:10:00,21.0,16.9,29.78,North,0,0.0,0.0,84,0.00,,,-99.99,VWS V12.07,2013-03-06 11:10:00,
2013-03-06 05:15:00,21.0,16.9,29.78,North,0,0.0,0.0,84,0.00,,,-99.99,VWS V12.07,2013-03-06 11:15:00,
2013-03-06 05:20:00,21.0,16.9,29.79,North,0,0.0,0.0,84,0.00,,,-99.99,VWS V12.07,2013-03-06 11:20:00,
2013-03-06 05:25:00,21.0,16.9,29.79,North,0,0.0,0.0,84,0.00,,,-99.99,VWS V12.07,2013-03-06 11:25:00,
2013-03-06 05:30:00,21.0,16.9,29.79,North,0,0.0,0.0,84,0.00,,,-99.99,VWS V12.07,2013-03-06 11:30:00,
2013-03-06 05:35:00,21.0,16.9,29.79,North,0,0.0,0.0,84,0.00,,,-99.99,VWS V12.07,2013-03-06 11:35:00,
2013-03-06 05:40:00,21.0,16.9,29.79,North,0,0.0,0.0,84,0.00,,,-99.99,VWS V12.07,2013-03-06 11:40:00,
2013-03-06 05:45:00,21.0,16.9,29.80,NNW,338,0.0,0.0,84,0.00,,,-99.99,VWS V12.07,2013-03-06 11:45:00,
2013-03-06 05:50:00,21.0,16.9,29.80,NNW,338,0.0,0.0,84,0.00,,,-99.99,VWS V12.07,2013-03-06 11:50:00,
2013-03-06 06:00:00,21.0,16.9,29.80,North,0,0.0,0.0,84,0.00,,,-99.99,VWS V12.07,2013-03-06 12:00:00,
2013-03-06 06:05:00,21.0,16.9,29.80,NNE,22,0.0,0.0,84,0.00,,,-99.99,VWS V12.07,2013-03-06 12:05:00,
2013-03-06 06:10:00,21.0,16.9,29.80,NNE,22,0.0,0.0,84,0.00,,,-99.99,VWS V12.07,2013-03-06 12:10:00,
2013-03-06 06:15:00,21.0,16.9,29.80,NE,45,0.0,0.0,84,0.00,,,-99.99,VWS V12.07,2013-03-06 12:15:00,
2013-03-06 06:20:00,21.0,16.9,29.80,NE,45,0.0,0.0,84,0.00,,,-99.99,VWS V12.07,2013-03-06 12:20:00,
2013-03-06 06:30:00,21.0,16.9,29.80,NE,45,0.0,0.0,84,0.00,,,-99.99,VWS V12.07,2013-03-06 12:30:00,
2013-03-06 06:40:00,21.0,16.9,29.80,NNE,22,0.0,0.0,84,0.00,,,-99.99,VWS V12.07,2013-03-06 12:40:00,
2013-03-06 06:45:00,20.8,16.7,29.80,NNE,22,0.0,0.0,84,0.00,,,-99.99,VWS V12.07,2013-03-06 12:45:00,
2013-03-06 06:50:00,20.8,16.7,29.80,NNW,338,0.0,0.0,84,0.00,,,-99.99,VWS V12.07,2013-03-06 12:50:00,
2013-03-06 06:55:00,20.8,16.7,29.80,NNW,338,0.0,0.0,84,0.00,,,-99.99,VWS V12.07,2013-03-06 12:55:00,
2013-03-06 07:05:00,20.8,16.7,29.80,NNW,338,0.0,0.0,84,0.00,,,-99.99,VWS V12.07,2013-03-06 13:05:00,
2013-03-06 07:10:00,20.8,16.7,29.80,NNW,338,0.0,0.0,84,0.00,,,-99.99,VWS V12.07,2013-03-06 13:10:00,
2013-03-06 07:15:00,20.8,16.7,29.80,NNW,338,0.0,0.0,84,0.00,,,-99.99,VWS V12.07,2013-03-06 13:15:00,
2013-03-06 07:20:00,21.0,16.9,29.80,NNW,338,0.0,0.0,84,0.00,,,-99.99,VWS V12.07,2013-03-06 13:20:00,
2013-03-06 07:25:00,21.0,16.9,29.80,NNW,338,0.0,0.0,84,0.00,,,-99.99,VWS V12.07,2013-03-06 13:25:00,
2013-03-06 07:30:00,21.0,16.9,29.80,NNW,338,0.0,0.0,84,0.00,,,-99.99,VWS V12.07,2013-03-06 13:30:00,
2013-03-06 07:35:00,21.0,16.9,29.80,NNE,22,0.0,0.0,84,0.00,,,-99.99,VWS V12.07,2013-03-06 13:35:00,
2013-03-06 07:40:00,21.0,16.9,29.81,WSW,248,0.0,0.0,84,0.00,,,-99.99,VWS V12.07,2013-03-06 13:40:00,
2013-03-06 07:45:00,21.3,17.2,29.81,NE,45,0.0,0.0,84,0.00,,,-99.99,VWS V12.07,2013-03-06 13:45:00,
2013-03-06 07:50:00,21.3,17.2,29.81,NE,45,0.0,0.0,84,0.00,,,-99.99,VWS V12.07,2013-03-06 13:50:00,
2013-03-06 07:55:00,21.3,17.2,29.81,NE,45,0.0,0.0,84,0.00,,,-99.99,VWS V12.07,2013-03-06 13:55:00,
2013-03-06 08:05:00,21.3,17.2,29.81,NE,45,0.0,0.0,84,0.00,,,-99.99,VWS V12.07,2013-03-06 14:05:00,
2013-03-06 08:10:00,21.5,17.4,29.81,NE,45,0.0,0.0,84,0.00,,,-99.99,VWS V12.07,2013-03-06 14:10:00,
2013-03-06 08:15:00,21.7,17.6,29.81,NNE,22,0.0,0.0,84,0.00,,,-99.99,VWS V12.07,2013-03-06 14:15:00,
2013-03-06 08:20:00,21.5,17.4,29.82,North,0,0.0,0.0,84,0.00,,,-99.99,VWS V12.07,2013-03-06 14:20:00,
2013-03-06 10:05:00,23.7,19.3,29.83,West,270,0.0,0.0,83,0.00,,,-99.99,VWS V12.07,2013-03-06 16:05:00,
2013-03-06 10:10:00,23.9,19.5,29.83,NNW,338,0.0,0.0,83,0.00,,,-99.99,VWS V12.07,2013-03-06 16:10:00,
2013-03-06 10:15:00,24.0,19.6,29.83,NNW,338,0.0,6.4,83,0.00,,,-99.99,VWS V12.07,2013-03-06 16:15:00,
2013-03-06 10:20:00,24.0,19.3,29.83,West,270,0.0,0.0,82,0.00,,,-99.99,VWS V12.07,2013-03-06 16:20:00,
2013-03-06 10:25:00,24.4,19.7,29.83,WNW,292,0.0,0.0,82,0.00,,,-99.99,VWS V12.07,2013-03-06 16:25:00,
2013-03-06 10:35:00,24.4,19.4,29.83,NNE,22,0.0,3.1,81,0.00,,,-99.99,VWS V12.07,2013-03-06 16:35:00,
2013-03-06 10:40:00,24.6,19.6,29.83,NNE,22,4.0,4.0,81,0.00,,,-99.99,VWS V12.07,2013-03-06 16:40:00,
2013-03-06 10:45:00,24.6,19.6,29.83,WNW,292,0.0,4.0,81,0.00,,,-99.99,VWS V12.07,2013-03-06 16:45:00,
2013-03-06 10:50:00,24.9,19.6,29.83,WNW,292,2.6,2.6,80,0.00,,,-99.99,VWS V12.07,2013-03-06 16:50:00,
2013-03-06 10:55:00,24.9,19.3,29.83,WSW,248,0.0,2.6,79,0.00,,,-99.99,VWS V12.07,2013-03-06 16:55:00,
2013-03-06 11:00:00,25.1,19.8,29.83,North,0,0.0,2.6,80,0.00,,,-99.99,VWS V12.07,2013-03-06 17:00:00,
2013-03-06 11:05:00,25.5,19.9,29.83,NE,45,0.0,2.9,79,0.00,,,-99.99,VWS V12.07,2013-03-06 17:05:00,
2013-03-06 11:10:00,25.8,20.2,29.83,NNE,22,3.8,3.8,79,0.00,,,-99.99,VWS V12.07,2013-03-06 17:10:00,
2013-03-06 11:15:00,25.8,19.9,29.83,NE,45,0.8,3.8,78,0.00,,,-99.99,VWS V12.07,2013-03-06 17:15:00,
2013-03-06 11:20:00,26.0,19.8,29.83,NW,315,0.0,0.8,77,0.00,,,-99.99,VWS V12.07,2013-03-06 17:20:00,
2013-03-06 11:25:00,26.2,20.0,29.84,WSW,248,0.0,2.0,77,0.00,,,-99.99,VWS V12.07,2013-03-06 17:25:00,
2013-03-06 11:30:00,25.8,19.3,29.84,NE,45,0.0,2.0,76,0.00,,,-99.99,VWS V12.07,2013-03-06 17:30:00,
2013-03-06 11:35:00,25.8,19.3,29.83,NE,45,2.0,2.0,76,0.00,,,-99.99,VWS V12.07,2013-03-06 17:35:00,
2013-03-06 11:40:00,26.0,19.5,29.84,NNE,22,2.0,3.3,76,0.00,,,-99.99,VWS V12.07,2013-03-06 17:40:00,
2013-03-06 11:50:00,26.2,19.7,29.83,WSW,248,0.0,2.0,76,0.00,,,-99.99,VWS V12.07,2013-03-06 17:50:00,
2013-03-06 11:55:00,26.4,19.9,29.83,NNE,22,0.0,4.4,76,0.00,,,-99.99,VWS V12.07,2013-03-06 17:55:00,
2013-03-06 12:00:00,26.4,19.6,29.83,West,270,1.1,4.4,75,0.00,,,-99.99,VWS V12.07,2013-03-06 18:00:00,
2013-03-06 12:05:00,26.4,19.6,29.83,WNW,292,4.9,4.9,75,0.00,,,-99.99,VWS V12.07,2013-03-06 18:05:00,
2013-03-06 12:10:00,26.6,19.4,29.83,NNE,22,0.0,4.9,74,0.00,,,-99.99,VWS V12.07,2013-03-06 18:10:00,
2013-03-06 12:15:00,26.7,19.5,29.83,SSW,202,0.0,4.9,74,0.00,,,-99.99,VWS V12.07,2013-03-06 18:15:00,
2013-03-06 12:20:00,26.7,19.2,29.83,SW,225,0.0,6.7,73,0.00,,,-99.99,VWS V12.07,2013-03-06 18:20:00,
2013-03-06 12:25:00,26.9,19.4,29.83,North,0,2.6,6.7,73,0.00,,,-99.99,VWS V12.07,2013-03-06 18:25:00,
2013-03-06 12:30:00,27.1,19.6,29.83,WSW,248,0.0,6.7,73,0.00,,,-99.99,VWS V12.07,2013-03-06 18:30:00,
2013-03-06 12:35:00,27.1,19.6,29.82,SSW,202,5.1,5.1,73,0.00,,,-99.99,VWS V12.07,2013-03-06 18:35:00,
2013-03-06 12:40:00,27.5,19.7,29.82,NW,315,0.0,5.1,72,0.00,,,-99.99,VWS V12.07,2013-03-06 18:40:00,
2013-03-06 12:45:00,27.6,19.8,29.82,SSW,202,3.8,5.1,72,0.00,,,-99.99,VWS V12.07,2013-03-06 18:45:00,
2013-03-06 12:50:00,27.6,19.4,29.82,West,270,0.0,3.8,71,0.00,,,-99.99,VWS V12.07,2013-03-06 18:50:00,
2013-03-06 12:55:00,27.8,19.6,29.81,WSW,248,0.0,3.8,71,0.00,,,-99.99,VWS V12.07,2013-03-06 18:55:00,
2013-03-06 13:00:00,28.0,19.8,29.81,NNW,338,0.0,3.8,71,0.00,,,-99.99,VWS V12.07,2013-03-06 19:00:00,
2013-03-06 13:05:00,28.0,19.8,29.81,West,270,0.0,0.0,71,0.00,,,-99.99,VWS V12.07,2013-03-06 19:05:00,
2013-03-06 13:10:00,28.0,19.5,29.81,North,0,3.5,5.1,70,0.00,,,-99.99,VWS V12.07,2013-03-06 19:10:00,
2013-03-06 13:15:00,28.0,19.5,29.81,West,270,2.0,5.1,70,0.00,,,-99.99,VWS V12.07,2013-03-06 19:15:00,
2013-03-06 13:20:00,28.0,19.5,29.81,NNE,22,7.3,7.3,70,0.00,,,-99.99,VWS V12.07,2013-03-06 19:20:00,
2013-03-06 13:25:00,28.0,19.5,29.81,WNW,292,0.0,7.3,70,0.00,,,-99.99,VWS V12.07,2013-03-06 19:25:00,
2013-03-06 13:30:00,28.0,19.2,29.81,North,0,5.3,7.3,69,0.00,,,-99.99,VWS V12.07,2013-03-06 19:30:00,
2013-03-06 13:40:00,27.6,19.1,29.81,NNE,22,0.0,2.0,70,0.00,,,-99.99,VWS V12.07,2013-03-06 19:40:00,
2013-03-06 13:45:00,27.6,19.1,29.81,NNE,22,0.0,2.0,70,0.00,,,-99.99,VWS V12.07,2013-03-06 19:45:00,
2013-03-06 13:50:00,28.0,19.5,29.81,East,90,0.0,0.0,70,0.00,,,-99.99,VWS V12.07,2013-03-06 19:50:00,
2013-03-06 13:55:00,28.0,19.2,29.81,NW,315,0.0,2.2,69,0.00,,,-99.99,VWS V12.07,2013-03-06 19:55:00,
2013-03-06 14:00:00,28.0,19.2,29.81,North,0,5.5,5.5,69,0.00,,,-99.99,VWS V12.07,2013-03-06 20:00:00,
2013-03-06 14:05:00,28.0,19.2,29.80,West,270,3.8,3.8,69,0.00,,,-99.99,VWS V12.07,2013-03-06 20:05:00,
2013-03-06 14:10:00,28.0,18.8,29.81,WNW,292,0.0,3.8,68,0.00,,,-99.99,VWS V12.07,2013-03-06 20:10:00,
2013-03-06 14:15:00,28.0,18.8,29.80,WNW,292,4.6,4.6,68,0.00,,,-99.99,VWS V12.07,2013-03-06 20:15:00,
2013-03-06 14:20:00,28.0,18.8,29.80,NNW,338,0.0,0.0,68,0.00,,,-99.99,VWS V12.07,2013-03-06 20:20:00,
2013-03-06 14:25:00,28.0,18.8,29.81,SW,225,0.0,0.0,68,0.00,,,-99.99,VWS V12.07,2013-03-06 20:25:00,
2013-03-06 14:35:00,28.5,19.3,29.80,NNW,338,0.0,5.1,68,0.00,,,-99.99,VWS V12.07,2013-03-06 20:35:00,
2013-03-06 14:40:00,28.9,19.3,29.80,SW,225,0.0,5.3,67,0.00,,,-99.99,VWS V12.07,2013-03-06 20:40:00,
2013-03-06 14:45:00,29.3,19.7,29.80,NNE,22,1.1,5.3,67,0.00,,,-99.99,VWS V12.07,2013-03-06 20:45:00,
2013-03-06 14:50:00,29.4,19.5,29.80,NE,45,0.0,6.2,66,0.00,,,-99.99,VWS V12.07,2013-03-06 20:50:00,
2013-03-06 15:00:00,29.6,19.6,29.80,NNE,22,0.0,6.2,66,0.00,,,-99.99,VWS V12.07,2013-03-06 21:00:00,
2013-03-06 15:05:00,30.0,20.0,29.80,NNE,22,0.0,0.0,66,0.00,,,-99.99,VWS V12.07,2013-03-06 21:05:00,
2013-03-06 15:10:00,30.3,20.3,29.80,NE,45,4.2,4.2,66,0.00,,,-99.99,VWS V12.07,2013-03-06 21:10:00,
2013-03-06 15:15:00,30.3,20.0,29.80,NNE,22,0.0,6.7,65,0.00,,,-99.99,VWS V12.07,2013-03-06 21:15:00,
2013-03-06 15:20:00,30.3,20.0,29.80,NNW,338,0.0,0.0,65,0.00,,,-99.99,VWS V12.07,2013-03-06 21:20:00,
2013-03-06 15:25:00,30.3,19.6,29.80,NNW,338,1.1,1.1,64,0.00,,,-99.99,VWS V12.07,2013-03-06 21:25:00,
2013-03-06 15:30:00,30.5,19.8,29.80,NW,315,0.0,1.1,64,0.00,,,-99.99,VWS V12.07,2013-03-06 21:30:00,
2013-03-06 15:35:00,30.7,20.0,29.80,WSW,248,0.0,2.6,64,0.00,,,-99.99,VWS V12.07,2013-03-06 21:35:00,
2013-03-06 15:40:00,31.1,20.4,29.80,SW,225,0.0,2.6,64,0.00,,,-99.99,VWS V12.07,2013-03-06 21:40:00,
2013-03-06 15:45:00,31.2,20.1,29.80,WSW,248,0.0,2.6,63,0.00,,,-99.99,VWS V12.07,2013-03-06 21:45:00,
2013-03-06 15:50:00,31.2,19.7,29.81,West,270,0.0,0.0,62,0.00,,,-99.99,VWS V12.07,2013-03-06 21:50:00,
2013-03-06 16:00:00,30.7,18.9,29.81,NNE,22,0.0,0.0,61,0.00,,,-99.99,VWS V12.07,2013-03-06 22:00:00,
2013-03-06 16:05:00,30.5,18.7,29.81,NNE,22,0.0,0.0,61,0.00,,,-99.99,VWS V12.07,2013-03-06 22:05:00,
2013-03-06 16:10:00,30.5,19.0,29.81,NNE,22,0.0,0.0,62,0.00,,,-99.99,VWS V12.07,2013-03-06 22:10:00,
2013-03-06 16:20:00,30.5,19.0,29.81,NE,45,0.0,0.0,62,0.00,,,-99.99,VWS V12.07,2013-03-06 22:20:00,
2013-03-06 16:25:00,30.5,19.0,29.81,NE,45,0.0,0.0,62,0.00,,,-99.99,VWS V12.07,2013-03-06 22:25:00,
2013-03-06 16:30:00,30.3,18.9,29.81,NNW,338,0.0,0.0,62,0.00,,,-99.99,VWS V12.07,2013-03-06 22:30:00,
2013-03-06 16:35:00,30.3,18.5,29.81,NE,45,0.0,0.0,61,0.00,,,-99.99,VWS V12.07,2013-03-06 22:35:00,
2013-03-06 16:45:00,29.3,17.5,29.81,WNW,292,0.0,6.4,61,0.00,,,-99.99,VWS V12.07,2013-03-06 22:45:00,
2013-03-06 16:50:00,29.1,17.3,29.81,NNE,22,0.0,0.0,61,0.00,,,-99.99,VWS V12.07,2013-03-06 22:50:00,
2013-03-06 16:55:00,28.5,16.8,29.81,NNE,22,0.0,0.0,61,0.00,,,-99.99,VWS V12.07,2013-03-06 22:55:00,
2013-03-06 17:00:00,28.4,16.7,29.81,NW,315,0.0,3.3,61,0.00,,,-99.99,VWS V12.07,2013-03-06 23:00:00,
2013-03-06 17:05:00,28.2,16.9,29.81,NE,45,0.0,0.0,62,0.00,,,-99.99,VWS V12.07,2013-03-06 23:05:00,
2013-03-06 17:10:00,27.8,16.5,29.81,NE,45,0.0,0.0,62,0.00,,,-99.99,VWS V12.07,2013-03-06 23:10:00,
2013-03-06 17:15:00,27.6,16.3,29.81,NE,45,0.0,0.0,62,0.00,,,-99.99,VWS V12.07,2013-03-06 23:15:00,
2013-03-06 17:25:00,27.1,15.8,29.81,NE,45,0.0,0.0,62,0.00,,,-99.99,VWS V12.07,2013-03-06 23:25:00,
2013-03-06 17:30:00,26.7,15.4,29.81,NE,45,0.0,0.0,62,0.00,,,-99.99,VWS V12.07,2013-03-06 23:30:00,
2013-03-06 17:35:00,26.6,15.4,29.81,NE,45,0.0,0.0,62,0.00,,,-99.99,VWS V12.07,2013-03-06 23:35:00,
2013-03-06 17:40:00,26.4,15.2,29.81,NE,45,0.0,0.0,62,0.00,,,-99.99,VWS V12.07,2013-03-06 23:40:00,
2013-03-06 17:45:00,26.2,15.0,29.81,NE,45,0.0,0.0,62,0.00,,,-99.99,VWS V12.07,2013-03-06 23:45:00,
2013-03-06 17:50:00,26.0,14.8,29.81,NE,45,0.0,0.0,62,0.00,,,-99.99,VWS V12.07,2013-03-06 23:50:00,
2013-03-06 18:00:00,25.8,15.0,29.81,NE,45,0.0,0.0,63,0.00,,,-99.99,VWS V12.07,2013-03-07 00:00:00,
2013-03-06 18:15:00,25.5,14.7,29.82,NE,45,0.0,0.0,63,0.00,,,-99.99,VWS V12.07,2013-03-07 00:15:00,
2013-03-06 18:25:00,25.1,14.6,29.82,NE,45,0.0,0.0,64,0.00,,,-99.99,VWS V12.07,2013-03-07 00:25:00,
2013-03-06 18:35:00,24.9,14.5,29.82,NE,45,0.0,0.0,64,0.00,,,-99.99,VWS V12.07,2013-03-07 00:35:00,
2013-03-06 18:40:00,24.9,14.5,29.82,NE,45,0.0,0.0,64,0.00,,,-99.99,VWS V12.07,2013-03-07 00:40:00,
2013-03-06 18:45:00,24.6,14.2,29.82,NE,45,0.0,0.0,64,0.00,,,-99.99,VWS V12.07,2013-03-07 00:45:00,
2013-03-06 18:50:00,24.6,14.5,29.83,NE,45,0.0,0.0,65,0.00,,,-99.99,VWS V12.07,2013-03-07 00:50:00,
2013-03-06 18:55:00,24.4,14.3,29.83,NE,45,0.0,0.2,65,0.00,,,-99.99,VWS V12.07,2013-03-07 00:55:00,
2013-03-06 19:00:00,24.0,14.0,29.83,NE,45,0.4,3.5,65,0.00,,,-99.99,VWS V12.07,2013-03-07 01:00:00,
2013-03-06 19:05:00,24.0,14.0,29.83,NE,45,0.0,0.0,65,0.00,,,-99.99,VWS V12.07,2013-03-07 01:05:00,
2013-03-06 19:10:00,23.7,13.7,29.83,NE,45,0.0,0.0,65,0.00,,,-99.99,VWS V12.07,2013-03-07 01:10:00,
2013-03-06 19:15:00,23.5,13.5,29.83,NE,45,0.0,0.0,65,0.00,,,-99.99,VWS V12.07,2013-03-07 01:15:00,
2013-03-06 19:20:00,23.5,13.5,29.83,NE,45,0.0,0.0,65,0.00,,,-99.99,VWS V12.07,2013-03-07 01:20:00,
2013-03-06 19:25:00,23.1,13.4,29.83,NE,45,0.0,0.0,66,0.00,,,-99.99,VWS V12.07,2013-03-07 01:25:00,
2013-03-06 19:30:00,22.8,13.2,29.83,NE,45,0.0,0.0,66,0.00,,,-99.99,VWS V12.07,2013-03-07 01:30:00,
2013-03-06 19:40:00,22.4,12.8,29.84,NE,45,0.0,0.0,66,0.00,,,-99.99,VWS V12.07,2013-03-07 01:40:00,
2013-03-06 19:45:00,22.1,12.5,29.84,NE,45,0.0,0.0,66,0.00,,,-99.99,VWS V12.07,2013-03-07 01:45:00,
2013-03-06 19:50:00,21.9,12.3,29.84,NE,45,0.0,0.0,66,0.00,,,-99.99,VWS V12.07,2013-03-07 01:50:00,
2013-03-06 19:55:00,21.5,11.9,29.84,NE,45,0.0,0.0,66,0.00,,,-99.99,VWS V12.07,2013-03-07 01:55:00,
2013-03-06 20:00:00,21.3,12.1,29.84,NE,45,0.0,0.0,67,0.00,,,-99.99,VWS V12.07,2013-03-07 02:00:00,
2013-03-06 20:05:00,21.0,11.8,29.84,NE,45,0.0,0.0,67,0.00,,,-99.99,VWS V12.07,2013-03-07 02:05:00,
2013-03-06 20:10:00,20.8,11.6,29.85,NE,45,0.0,0.0,67,0.00,,,-99.99,VWS V12.07,2013-03-07 02:10:00,
2013-03-06 20:15:00,20.4,11.2,29.85,NE,45,0.0,0.0,67,0.00,,,-99.99,VWS V12.07,2013-03-07 02:15:00,
2013-03-06 20:20:00,20.1,10.9,29.85,NE,45,0.0,0.0,67,0.00,,,-99.99,VWS V12.07,2013-03-07 02:20:00,
2013-03-06 20:30:00,19.5,10.7,29.85,NE,45,0.0,0.0,68,0.00,,,-99.99,VWS V12.07,2013-03-07 02:30:00,
2013-03-06 20:35:00,19.4,10.6,29.85,NE,45,0.0,0.0,68,0.00,,,-99.99,VWS V12.07,2013-03-07 02:35:00,
2013-03-06 20:40:00,19.2,10.4,29.85,NE,45,0.0,0.0,68,0.00,,,-99.99,VWS V12.07,2013-03-07 02:40:00,
2013-03-06 20:45:00,19.0,10.2,29.85,NE,45,0.0,0.0,68,0.00,,,-99.99,VWS V12.07,2013-03-07 02:45:00,
2013-03-06 20:50:00,18.6,9.8,29.85,NE,45,0.0,0.0,68,0.00,,,-99.99,VWS V12.07,2013-03-07 02:50:00,
2013-03-06 20:55:00,18.3,9.9,29.85,NE,45,0.0,0.0,69,0.00,,,-99.99,VWS V12.07,2013-03-07 02:55:00,
2013-03-06 21:00:00,18.3,9.9,29.86,NE,45,0.0,0.0,69,0.00,,,-99.99,VWS V12.07,2013-03-07 03:00:00,
2013-03-06 21:05:00,18.1,9.7,29.86,NE,45,0.0,0.0,69,0.00,,,-99.99,VWS V12.07,2013-03-07 03:05:00,
2013-03-06 21:10:00,17.7,9.3,29.86,NE,45,0.0,0.0,69,0.00,,,-99.99,VWS V12.07,2013-03-07 03:10:00,
2013-03-06 21:15:00,17.7,9.6,29.86,NE,45,0.0,0.0,70,0.00,,,-99.99,VWS V12.07,2013-03-07 03:15:00,
2013-03-06 21:20:00,17.4,9.3,29.86,NE,45,0.0,0.0,70,0.00,,,-99.99,VWS V12.07,2013-03-07 03:20:00,
2013-03-06 21:25:00,17.2,9.1,29.86,NE,45,0.0,0.0,70,0.00,,,-99.99,VWS V12.07,2013-03-07 03:25:00,
2013-03-06 21:30:00,17.2,9.1,29.86,NE,45,0.0,0.0,70,0.00,,,-99.99,VWS V12.07,2013-03-07 03:30:00,
2013-03-06 21:35:00,16.8,8.7,29.86,NE,45,0.0,0.0,70,0.00,,,-99.99,VWS V12.07,2013-03-07 03:35:00,
2013-03-06 21:40:00,16.7,8.6,29.86,NE,45,0.0,0.0,70,0.00,,,-99.99,VWS V12.07,2013-03-07 03:40:00,
2013-03-06 21:50:00,16.3,8.6,29.86,NE,45,0.0,0.0,71,0.00,,,-99.99,VWS V12.07,2013-03-07 03:50:00,
2013-03-06 21:55:00,16.1,8.4,29.86,NE,45,0.0,0.0,71,0.00,,,-99.99,VWS V12.07,2013-03-07 03:55:00,
2013-03-06 22:00:00,15.9,8.2,29.86,NE,45,0.0,0.0,71,0.00,,,-99.99,VWS V12.07,2013-03-07 04:00:00,
2013-03-06 22:10:00,15.2,7.5,29.86,NE,45,0.0,0.0,71,0.00,,,-99.99,VWS V12.07,2013-03-07 04:10:00,
2013-03-06 22:15:00,14.9,7.2,29.86,NE,45,0.0,0.0,71,0.00,,,-99.99,VWS V12.07,2013-03-07 04:15:00,
2013-03-06 22:20:00,14.5,6.8,29.86,NE,45,0.0,0.0,71,0.00,,,-99.99,VWS V12.07,2013-03-07 04:20:00,
2013-03-06 22:25:00,14.1,6.4,29.86,NE,45,0.0,0.0,71,0.00,,,-99.99,VWS V12.07,2013-03-07 04:25:00,
2013-03-06 22:30:00,13.8,6.2,29.86,NE,45,0.0,0.0,71,0.00,,,-99.99,VWS V12.07,2013-03-07 04:30:00,
2013-03-06 22:35:00,13.2,5.9,29.86,NE,45,0.0,0.0,72,0.00,,,-99.99,VWS V12.07,2013-03-07 04:35:00,
2013-03-06 22:40:00,13.1,5.8,29.86,NE,45,0.0,0.0,72,0.00,,,-99.99,VWS V12.07,2013-03-07 04:40:00,
2013-03-06 22:45:00,12.7,5.4,29.85,NE,45,0.0,0.0,72,0.00,,,-99.99,VWS V12.07,2013-03-07 04:45:00,
2013-03-06 22:50:00,12.3,5.0,29.85,NE,45,0.0,0.0,72,0.00,,,-99.99,VWS V12.07,2013-03-07 04:50:00,
2013-03-06 22:55:00,12.0,4.7,29.85,NE,45,0.0,0.0,72,0.00,,,-99.99,VWS V12.07,2013-03-07 04:55:00,
2013-03-06 23:00:00,11.6,4.3,29.85,NE,45,0.0,0.0,72,0.00,,,-99.99,VWS V12.07,2013-03-07 05:00:00,
2013-03-06 23:05:00,11.1,3.8,29.86,NE,45,0.0,0.0,72,0.00,,,-99.99,VWS V12.07,2013-03-07 05:05:00,
2013-03-06 23:10:00,10.9,4.0,29.85,NE,45,0.0,0.0,73,0.00,,,-99.99,VWS V12.07,2013-03-07 05:10:00,
2013-03-06 23:15:00,10.5,3.6,29.85,NE,45,0.0,0.0,73,0.00,,,-99.99,VWS V12.07,2013-03-07 05:15:00,
2013-03-06 23:20:00,10.2,3.3,29.85,NE,45,0.0,0.0,73,0.00,,,-99.99,VWS V12.07,2013-03-07 05:20:00,
2013-03-06 23:30:00,9.6,2.7,29.85,NE,45,0.0,0.0,73,0.00,,,-99.99,VWS V12.07,2013-03-07 05:30:00,
2013-03-06 23:40:00,8.9,2.0,29.85,NE,45,0.0,0.0,73,0.00,,,-99.99,VWS V12.07,2013-03-07 05:40:00,
2013-03-06 23:45:00,8.6,1.7,29.85,NE,45,0.0,0.0,73,0.00,,,-99.99,VWS V12.07,2013-03-07 05:45:00,
2013-03-06 23:50:00,8.2,1.4,29.85,NE,45,0.0,0.0,73,0.00,,,-99.99,VWS V12.07,2013-03-07 05:50:00,